When you browse on this site, cookies collect data to enhance your experience and personalize the content and advertising you see.
Visit our Privacy Policy to learn more. By continuing to use the site, you agree to this use of cookies and data.
  • In Romania
  • List of Countries
  • For 7 days
  • Water Temperature
  • Satellite Maps
  • Weather Map
  • Weather Widgets
  • user-avatar
    Login

    Hourly Weather Achtrup

    Today, 18 February, Monday

    Time Temperature Precipitation Wind Pressure Humidity
    00:00 +4°C° 0 mm 3 mps 762 mmHg 86%
    01:00 +4°C° 0 mm 3 mps 762 mmHg 85%
    02:00 +4°C° 0 mm 3 mps 762 mmHg 87%
    03:00 +4°C° 0 mm 3 mps 762 mmHg 89%
    04:00 +4°C° 0 mm 3 mps 762 mmHg 90%
    05:00 +4°C° 0 mm 3 mps 762 mmHg 91%
    06:00 +4°C° 0 mm 3 mps 762 mmHg 92%
    07:00 +3°C° 0 mm 3 mps 762 mmHg 92%
    08:00 +4°C° 0 mm 4 mps 762 mmHg 89%
    09:00 +5°C° 0 mm 4 mps 761 mmHg 86%
    10:00 +6°C° 0 mm 4 mps 761 mmHg 84%
    11:00 +7°C° 0 mm 4 mps 761 mmHg 80%
    12:00 +8°C° 0 mm 4 mps 761 mmHg 77%
    13:00 +10°C° 0 mm 4 mps 761 mmHg 72%
    14:00 +10°C° 0 mm 4 mps 761 mmHg 72%
    15:00 +10°C° 0 mm 4 mps 760 mmHg 72%
    16:00 +10°C° 0 mm 4 mps 759 mmHg 72%
    17:00 +8°C° 0 mm 4 mps 759 mmHg 78%
    18:00 +8°C° 0 mm 3 mps 759 mmHg 83%
    19:00 +5°C° 0 mm 3 mps 759 mmHg 88%
    20:00 +5°C° 0 mm 3 mps 759 mmHg 90%
    21:00 +5°C° 0 mm 3 mps 758 mmHg 91%
    22:00 +5°C° 0 mm 3 mps 758 mmHg 92%
    23:00 +5°C° 0 mm 3 mps 758 mmHg 93%

    Tomorrow, 19 February, Tuesday

    Time Temperature Precipitation Wind Pressure Humidity
    00:00 +4°C° 0 mm 4 mps 757 mmHg 94%
    01:00 +4°C° 0 mm 4 mps 757 mmHg 94%
    02:00 +5°C° 0.2 mm 4 mps 757 mmHg 94%
    03:00 +5°C° 0.2 mm 5 mps 757 mmHg 94%
    04:00 +5°C° 0.2 mm 5 mps 756 mmHg 94%
    05:00 +4°C° 0.1 mm 6 mps 756 mmHg 94%
    06:00 +4°C° 0.1 mm 6 mps 756 mmHg 93%
    07:00 +4°C° 0.1 mm 6 mps 756 mmHg 93%
    08:00 +4°C° 0 mm 7 mps 756 mmHg 91%
    09:00 +4°C° 0 mm 8 mps 756 mmHg 89%
    10:00 +4°C° 0 mm 8 mps 756 mmHg 87%
    11:00 +5°C° 0 mm 8 mps 756 mmHg 87%
    12:00 +5°C° 0 mm 8 mps 757 mmHg 86%
    13:00 +5°C° 0 mm 8 mps 757 mmHg 86%
    14:00 +5°C° 0.1 mm 8 mps 757 mmHg 85%
    15:00 +5°C° 0.1 mm 8 mps 757 mmHg 84%
    16:00 +5°C° 0.1 mm 8 mps 757 mmHg 83%
    17:00 +4°C° 0 mm 8 mps 758 mmHg 86%
    18:00 +4°C° 0 mm 7 mps 758 mmHg 89%
    19:00 +3°C° 0 mm 6 mps 758 mmHg 92%
    20:00 +3°C° 0 mm 6 mps 759 mmHg 93%
    21:00 +3°C° 0 mm 6 mps 759 mmHg 93%
    22:00 +3°C° 0 mm 6 mps 759 mmHg 93%
    23:00 +3°C° 0 mm 6 mps 759 mmHg 93%

    Day after tomorrow, 20 February, Wednesday

    Time Temperature Precipitation Wind Pressure Humidity
    00:00 +3°C° 0 mm 6 mps 760 mmHg 94%
    01:00 +3°C° 0 mm 5 mps 760 mmHg 94%
    02:00 +3°C° 0 mm 5 mps 760 mmHg 94%
    03:00 +3°C° 0 mm 5 mps 760 mmHg 93%
    04:00 +3°C° 0 mm 5 mps 760 mmHg 93%
    05:00 +3°C° 0 mm 5 mps 760 mmHg 93%
    06:00 +2°C° 0 mm 5 mps 760 mmHg 94%
    07:00 +3°C° 0 mm 4 mps 760 mmHg 94%
    08:00 +3°C° 0.1 mm 5 mps 761 mmHg 92%
    09:00 +5°C° 0.1 mm 5 mps 761 mmHg 91%
    10:00 +4°C° 0.1 mm 6 mps 761 mmHg 89%
    11:00 +4°C° 0.2 mm 6 mps 761 mmHg 89%
    12:00 +4°C° 0.2 mm 7 mps 761 mmHg 89%
    13:00 +4°C° 0.2 mm 7 mps 762 mmHg 89%
    14:00 +4°C° 0.5 mm 7 mps 761 mmHg 90%
    15:00 +4°C° 0.5 mm 7 mps 761 mmHg 92%
    16:00 +4°C° 0.5 mm 7 mps 761 mmHg 93%
    17:00 +4°C° 0.5 mm 7 mps 761 mmHg 93%
    18:00 +4°C° 0.5 mm 7 mps 761 mmHg 93%
    19:00 +4°C° 0.5 mm 8 mps 761 mmHg 94%
    20:00 +4°C° 0.2 mm 8 mps 761 mmHg 93%
    21:00 +4°C° 0.2 mm 8 mps 761 mmHg 93%
    22:00 +5°C° 0.2 mm 8 mps 761 mmHg 93%
    23:00 +5°C° 0.5 mm 8 mps 762 mmHg 93%

    21 February, Thursday

    Time Temperature Precipitation Wind Pressure Humidity
    00:00 +5°C° 0.5 mm 8 mps 762 mmHg 93%
    01:00 +5°C° 0.5 mm 8 mps 762 mmHg 94%
    02:00 +5°C° 0.2 mm 8 mps 762 mmHg 94%
    03:00 +5°C° 0.2 mm 8 mps 762 mmHg 94%
    04:00 +5°C° 0.2 mm 7 mps 763 mmHg 94%
    05:00 +5°C° 0.1 mm 7 mps 763 mmHg 94%
    06:00 +5°C° 0.1 mm 7 mps 763 mmHg 94%
    07:00 +5°C° 0.1 mm 6 mps 764 mmHg 94%
    08:00 +5°C° 0.1 mm 6 mps 764 mmHg 95%
    09:00 +5°C° 0.1 mm 6 mps 765 mmHg 95%
    10:00 +6°C° 0.1 mm 5 mps 765 mmHg 95%
    11:00 +7°C° 0 mm 5 mps 766 mmHg 93%
    12:00 +7°C° 0 mm 5 mps 766 mmHg 92%
    13:00 +8°C° 0 mm 5 mps 767 mmHg 90%
    14:00 +8°C° 0 mm 5 mps 767 mmHg 90%
    15:00 +8°C° 0 mm 5 mps 767 mmHg 90%
    16:00 +8°C° 0 mm 5 mps 767 mmHg 90%
    17:00 +7°C° 0 mm 4 mps 768 mmHg 92%
    18:00 +6°C° 0 mm 4 mps 768 mmHg 94%
    19:00 +6°C° 0 mm 4 mps 769 mmHg 96%
    20:00 +6°C° 0 mm 4 mps 770 mmHg 96%
    21:00 +6°C° 0 mm 4 mps 770 mmHg 95%
    22:00 +6°C° 0 mm 4 mps 771 mmHg 95%
    23:00 +6°C° 0 mm 4 mps 771 mmHg 96%

    22 February, Friday

    Time Temperature Precipitation Wind Pressure Humidity
    00:00 +7°C° 0 mm 3 mps 772 mmHg 96%
    01:00 +5°C° 0 mm 3 mps 772 mmHg 96%
    02:00 +5°C° 0 mm 3 mps 773 mmHg 96%
    03:00 +6°C° 0 mm 2 mps 773 mmHg 96%
    04:00 +5°C° 0 mm 2 mps 773 mmHg 96%
    05:00 +5°C° 0 mm 2 mps 774 mmHg 96%
    06:00 +6°C° 0 mm 1 mps 774 mmHg 96%
    07:00 +6°C° 0 mm 1 mps 775 mmHg 96%
    08:00 +7°C° 0 mm 1 mps 775 mmHg 94%
    09:00 +8°C° 0 mm 1 mps 776 mmHg 92%
    10:00 +9°C° 0 mm 1 mps 777 mmHg 89%
    11:00 +10°C° 0 mm 1 mps 777 mmHg 87%
    12:00 +10°C° 0 mm 2 mps 777 mmHg 84%
    13:00 +12°C° 0 mm 2 mps 778 mmHg 81%
    14:00 +10°C° 0 mm 2 mps 778 mmHg 82%
    15:00 +10°C° 0 mm 2 mps 778 mmHg 83%
    16:00 +10°C° 0 mm 3 mps 778 mmHg 83%
    17:00 +9°C° 0 mm 2 mps 778 mmHg 87%
    18:00 +8°C° 0 mm 2 mps 778 mmHg 90%
    19:00 +7°C° 0 mm 2 mps 778 mmHg 93%
    20:00 +6°C° 0 mm 2 mps 778 mmHg 94%
    21:00 +6°C° 0 mm 2 mps 778 mmHg 94%
    22:00 +5°C° 0 mm 2 mps 778 mmHg 94%
    23:00 +5°C° 0 mm 2 mps 779 mmHg 95%

    23 February, Saturday

    Time Temperature Precipitation Wind Pressure Humidity
    00:00 +5°C° 0 mm 2 mps 779 mmHg 95%
    01:00 +5°C° 0 mm 2 mps 779 mmHg 95%
    02:00 +5°C° 0 mm 2 mps 779 mmHg 95%
    03:00 +5°C° 0 mm 2 mps 779 mmHg 95%
    04:00 +5°C° 0 mm 2 mps 778 mmHg 95%
    05:00 +5°C° 0 mm 2 mps 778 mmHg 95%
    06:00 +5°C° 0 mm 2 mps 778 mmHg 95%
    07:00 +5°C° 0 mm 2 mps 778 mmHg 95%
    08:00 +6°C° 0 mm 2 mps 778 mmHg 92%
    09:00 +7°C° 0 mm 3 mps 778 mmHg 89%
    10:00 +8°C° 0 mm 3 mps 778 mmHg 86%
    11:00 +9°C° 0 mm 3 mps 778 mmHg 83%
    12:00 +9°C° 0 mm 3 mps 778 mmHg 79%
    13:00 +10°C° 0 mm 3 mps 778 mmHg 75%
    14:00 +10°C° 0 mm 3 mps 778 mmHg 75%
    15:00 +10°C° 0 mm 3 mps 777 mmHg 75%
    16:00 +9°C° 0 mm 3 mps 777 mmHg 74%
    17:00 +8°C° 0 mm 3 mps 777 mmHg 78%
    18:00 +7°C° 0 mm 2 mps 777 mmHg 82%
    19:00 +6°C° 0 mm 2 mps 777 mmHg 85%
    20:00 +6°C° 0 mm 2 mps 777 mmHg 84%
    21:00 +5°C° 0 mm 2 mps 777 mmHg 84%
    22:00 +5°C° 0 mm 2 mps 777 mmHg 83%
    23:00 +5°C° 0 mm 2 mps 776 mmHg 83%
    Show more